Weather History for Santa Maria, CA

Change the Weather History Date:

Tuesday, April 30, 2013

  Actual Average Record
Temperature  
Mean Temperature 61 °F 57 °F  
Max Temperature 70 °F 68 °F 98 °F (2014)
Min Temperature 52 °F 46 °F 33 °F (1967)
Degree Days  
Heating Degree Days 4 8  
Month to date heating degree days 200 284  
Since 1 July heating degree days 2175 2459  
Cooling Degree Days 0 0  
Month to date cooling degree days 2 4  
Year to date cooling degree days 2 6  
Growing Degree Days 11 (Base 50)    
Moisture  
Dew Point 51 °F    
Average Humidity 78    
Maximum Humidity 100    
Minimum Humidity 55    
Precipitation  
Precipitation T in 0.02 in 0.67 in (1955)
Month to date precipitation 0.11 0.98  
Year to date precipitation 2.45 9.36  
Since 1 July precipitation 6.18 13.60  
Sea Level Pressure  
Sea Level Pressure 29.86 in    
Wind  
Wind Speed 5 mph (SW)    
Max Wind Speed 15 mph    
Max Gust Speed -    
Visibility 6 miles    
Events      
T = Trace of Precipitation, MM = Missing Value Source: NWS Daily Summary

Daily Weather History Graph

Daily Weather History Graph

Search for Another Location

Airport:

Trip Planner

Search our weather history database for the weather conditions in past years. The results will help you decide how hot, cold, wet, or windy it might be!

Date:

Astronomy

Apr. 30, 2013 Rise Set
Actual Time 6:11 AM PDT 7:46 PM PDT
Civil Twilight 5:44 AM PDT 8:13 PM PDT
Nautical Twilight 5:12 AM PDT 8:46 PM PDT
Astronomical Twilight 4:38 AM PDT 9:20 PM PDT
Moon 12:11 AM PDT (4/30) 10:48 AM PDT (4/30)
Length of Visible Light 14h 28m
Length of Day
13h 34m
Waning Gibbous, 69% of the Moon is Illuminated
Apr 30
Waning Gibbous
May 2
Last Quarter
May 9
New
May 17
First Quarter
May 24
Full

Hourly Weather History & Observations

Time (PDT) Temp. Dew Point Humidity Pressure Visibility Wind Dir Wind Speed Gust Speed Precip Events Conditions
12:51 AM 54.0 °F 51.1 °F 90% 29.84 in 5.0 mi South 8.1 mph - N/A   Overcast
1:51 AM 52.0 °F 50.0 °F 93% 29.83 in 8.0 mi South 6.9 mph - N/A   Overcast
2:22 AM 51.8 °F 48.2 °F 88% 29.83 in 10.0 mi SSW 5.8 mph - N/A   Overcast
2:51 AM 52.0 °F 48.9 °F 89% 29.84 in 8.0 mi South 4.6 mph - N/A   Overcast
3:23 AM 51.8 °F 50.0 °F 94% 29.83 in 4.0 mi SSE 4.6 mph - N/A   Overcast
3:42 AM 51.8 °F 51.8 °F 100% 29.83 in 2.5 mi Variable 3.5 mph - N/A   Overcast
3:51 AM 53.1 °F 51.1 °F 93% 29.84 in 2.5 mi South 3.5 mph - N/A   Overcast
4:51 AM 52.0 °F 51.1 °F 97% 29.84 in 3.0 mi SSW 3.5 mph - 0.00 in   Overcast
5:24 AM 53.6 °F 51.8 °F 94% 29.83 in 2.5 mi South 3.5 mph - N/A   Overcast
5:35 AM 53.6 °F 51.8 °F 94% 29.83 in 3.0 mi South 4.6 mph - N/A   Overcast
5:51 AM 53.1 °F 51.1 °F 93% 29.84 in 4.0 mi South 4.6 mph - N/A   Overcast
6:51 AM 53.1 °F 52.0 °F 96% 29.85 in 5.0 mi South 6.9 mph - N/A   Overcast
7:51 AM 54.0 °F 52.0 °F 93% 29.86 in 3.0 mi South 6.9 mph - N/A   Overcast
8:51 AM 54.0 °F 52.0 °F 93% 29.87 in 6.0 mi West 8.1 mph - N/A   Overcast
9:18 AM 53.6 °F 51.8 °F 94% 29.87 in 2.5 mi West 9.2 mph - N/A   Overcast
9:51 AM 54.0 °F 52.0 °F 93% 29.89 in 2.5 mi WSW 5.8 mph - N/A   Overcast
10:34 AM 53.6 °F 51.8 °F 94% 29.88 in 3.0 mi SW 6.9 mph - N/A   Overcast
10:51 AM 55.0 °F 52.0 °F 89% 29.88 in 5.0 mi Calm Calm - N/A   Overcast
11:39 AM 60.8 °F 51.8 °F 72% 29.86 in 8.0 mi SSE 4.6 mph - N/A   Overcast
11:51 AM 61.0 °F 53.1 °F 75% 29.86 in 9.0 mi South 6.9 mph - N/A   Overcast
12:51 PM 64.0 °F 53.1 °F 67% 29.85 in 8.0 mi SW 5.8 mph - N/A   Overcast
12:59 PM 64.4 °F 53.6 °F 68% 29.84 in 8.0 mi South 8.1 mph - N/A   Mostly Cloudy
1:51 PM 66.0 °F 51.1 °F 59% 29.85 in 6.0 mi WSW 11.5 mph - N/A   Haze
2:51 PM 68.0 °F 51.1 °F 55% 29.85 in 7.0 mi Calm Calm - N/A   Clear
3:51 PM 68.0 °F 51.1 °F 55% 29.83 in 6.0 mi WSW 3.5 mph - N/A   Haze
4:51 PM 66.0 °F 51.1 °F 59% 29.83 in 6.0 mi NNW 13.8 mph - 0.01 in   Haze
5:51 PM 63.0 °F 51.1 °F 65% 29.84 in 6.0 mi NW 8.1 mph - N/A   Haze
6:51 PM 59.0 °F 51.1 °F 75% 29.85 in 6.0 mi WNW 10.4 mph - N/A   Haze
7:51 PM 55.0 °F 50.0 °F 83% 29.87 in 6.0 mi NW 8.1 mph - N/A   Haze
8:09 PM 53.6 °F 50.0 °F 88% 29.87 in 7.0 mi NW 6.9 mph - N/A   Mostly Cloudy
8:34 PM 53.6 °F 50.0 °F 88% 29.87 in 7.0 mi WNW 4.6 mph - N/A   Overcast
8:51 PM 55.0 °F 51.1 °F 86% 29.89 in 7.0 mi WNW 4.6 mph - N/A   Overcast
9:51 PM 55.0 °F 51.1 °F 86% 29.91 in 7.0 mi Calm Calm - N/A   Overcast
10:51 PM 55.0 °F 50.0 °F 83% 29.91 in 7.0 mi Calm Calm - N/A   Overcast
11:51 PM 55.0 °F 51.1 °F 86% 29.91 in 7.0 mi Calm Calm - N/A   Overcast